Location: Cudham
(51.3000°N, 0.0667°E)
Time: 21:05:01
(UTC+00:00)

Cosmos 158 Rocket - Pass Details

Date: 19 May 2025
Orbit: 694 x 787 km, 74.0° (Epoch: 21 June)

Event Time Altitude Azimuth Distance (km) Brightness Sun altitude
Rises 20:31:23 0° 183° (S) 3,230 6.9 -5.8°
Reaches altitude 10° 20:33:48 10° 178° (S) 2,318 6.1 -6.1°
Maximum altitude 20:38:50 46° 106° (ESE) 1,044 4.4 -6.7°
Drops below altitude 10° 20:43:57 10° 34° (NE) 2,359 6.7 -7.2°
Sets 20:46:26 0° 29° (NNE) 3,292 7.5 -7.5°
